Location: Étang Rond
(42.7927°N, 1.0661°E)
Time: 01:58:45
(UTC+00:00)

Cosmos 1939 Rocket - Pass Details

Date: 08 November 2025
Orbit: 492 x 528 km, 97.5° (Epoch: 07 December)

Event Time Altitude Azimuth Distance (km) Brightness Sun altitude
Rises 05:17:07 0° 360° (N) 2,684 6.2 -15.3°
Reaches altitude 10° 05:19:28 10° 348° (NNW) 1,788 5.2 -14.8°
Maximum altitude 05:22:42 26° 291° (WNW) 1,072 3.7 -14.2°
Enters shadow 05:23:29 24° 271° (W) 1,124 3.8 -14.1°
